www.pogodaiklimat.ru

Погода и климат >> Архив погоды >> Россия >> Якутия >> Сухана


ПОГОДА в Сухане

  • Прогноз погоды в Сухане
  • Монитор погоды в Сухане

АРХИВ ПОГОДЫ в Сухане

Время (UTC), дата Ветер
(напр.,м/с)
 
Видим.   Явления Облачность Т
(С)
Тd
(С)
f
(%)
Тe
(С)
Тes
(С)
Комфортность P
(гПа)
Po
(гПа)
Тmin
(С)
Tmax
(С)
R
(мм)
R24
(мм)
S
(см)
06 9.01 С 2 50 км 5/0
[Ac lent Cs]
-36.5 -39.4 74 -45 -45 опасность
обморожения
1009.7 998.6
09 9.01 штиль 0 50 км 3/0
[Cs]
-37.6 -40.5 74 -38 -38 опасность
обморожения
1011.9 1000.5
12 9.01 С 1 50 км 10/0
[Cs]
-37.5 -40.5 73 -42 -42 опасность
обморожения
1012.5 1001.1 -34.7
15 9.01 С 1 20 км слаб. снег 10/0
[Cs]
-38.1 -40.9 75 -43 -43 опасность
обморожения
1012.9 1001.5
18 9.01 С 1 50 км {снег} 10/0
[Cs]
-38.0 -40.9 74 -43 -43 опасность
обморожения
1013.3 1001.9
21 9.01 штиль 0 50 км 10/0
[Cs]
-38.2 -40.9 76 -38 -38 опасность
обморожения
1013.3 1001.9
00 10.01 штиль 0 50 км 6/0
[Ac trans Cs]
-39.5 -42.2 75 -40 -40 опасность
обморожения
1014.0 1002.6 -39.5 0.3 20
03 10.01 С 1 50 км 1/0
[Ac lent]
-40.6 -43.2 76 -46 -46 опасность
обморожения
1013.7 1002.3 -40.8
06 10.01 штиль 0 50 км 4/0
[Ac As Cs]
-42.2 -44.8 76 -42 -42 опасность
обморожения
1014.3 1002.9
09 10.01 С 1 50 км 1/0
[Ac lent]
-40.6 -43.2 76 -46 -46 опасность
обморожения
1014.5 1003.1
12 10.01 штиль 0 50 км ясно -42.4 -44.8 77 -42 -42 опасность
обморожения
1014.9 1003.5 -39.5
15 10.01 штиль 0 50 км ясно -42.8 -45.5 75 -43 -43 опасность
обморожения
1015.0 1003.3
18 10.01 штиль 0 50 км ясно -44.9 -47.6 74 -45 -45 опасность
обморожения
1015.0 1003.3
21 10.01 штиль 0 50 км ясно -45.7 -48.5 73 -46 -46 опасность
обморожения
1014.6 1002.9
00 11.01 штиль 0 50 км ясно -47.6 -50.5 72 -48 -48 опасность
обморожения
1014.2 1002.3 -47.6 20
03 11.01 штиль 0 50 км 1/0
[Cs]
-48.0 -50.5 75 -48 -48 опасность
обморожения
1013.6 1001.7 -48.6
06 11.01 штиль 0 50 км 3/0
[Cs]
-46.8 -49.4 75 -47 -47 опасность
обморожения
1013.2 1001.5
09 11.01 штиль 0 50 км 3/0
[Cs]
-45.8 -48.5 74 -46 -46 опасность
обморожения
1013.5 1001.8
12 11.01 штиль 0 20 км слаб. снег 10/0
[Cs]
-41.8 -44.3 76 -42 -42 опасность
обморожения
1012.8 1001.4 -41.8 0.3
15 11.01 штиль 0 слаб. снег 10/0
[Cs]
-40.5 -43.2 75 -41 -41 опасность
обморожения
1012.8 1001.4
18 11.01 штиль 0 20 км слаб. снег 10/0
[Cs]
-39.1 -41.7 76 -39 -39 опасность
обморожения
1013.5 1002.1
21 11.01 штиль 0 50 км {снег} ясно -41.5 -44.3 74 -42 -42 опасность
обморожения
1015.2 1003.8
00 12.01 штиль 0 50 км {снег} ясно -44.3 -46.9 75 -44 -44 опасность
обморожения
1017.8 1006.1 -44.3 0.4 20
03 12.01 штиль 0 50 км ясно -47.3 -49.4 79 -47 -47 опасность
обморожения
1019.8 1008.1 -47.3
06 12.01 штиль 0 50 км ясно -48.1 -50.5 76 -48 -48 опасность
обморожения
1021.7 1009.8
09 12.01 штиль 0 50 км ясно -49.7 -51.6 80 -50 -50 опасность
обморожения
1023.8 1011.8
12 12.01 штиль 0 50 км ясно -50.0 -53.0 70 -50 -50 опасность
обморожения
1025.4 1013.4 -44.3
15 12.01 штиль 0 50 км ясно -50.3 -53.0 73 -50 -50 опасность
обморожения
1026.5 1014.5
18 12.01 штиль 0 50 км ясно -51.9 -55.1 68 -52 -52 опасность
обморожения
1027.2 1015.2
21 12.01 штиль 0 50 км ясно -51.0 -53.5 74 -51 -51 опасность
обморожения
1028.3 1016.3
00 13.01 штиль 0 50 км ясно -51.3 -55.1 64 -51 -51 опасность
обморожения
1029.4 1017.4 -52.0 20
03 13.01 СВ 1 50 км ясно -52.1 -55.1 70 -59 -59 опасность
обморожения
1030.0 1018.0 -52.1
06 13.01 штиль 0 50 км ясно -52.2 -55.1 71 -52 -52 опасность
обморожения
1031.2 1019.2
09 13.01 штиль 0 50 км ясно -52.2 -55.1 71 -52 -52 опасность
обморожения
1032.4 1020.2
12 13.01 штиль 0 50 км ясно -51.8 -55.1 67 -52 -52 опасность
обморожения
1033.4 1021.2 -49.9
15 13.01 штиль 0 50 км ясно -52.2 -55.1 71 -52 -52 опасность
обморожения
1034.0 1021.8
18 13.01 штиль 0 50 км ясно -53.8 -56.9 68 -54 -54 опасность
обморожения
1035.0 1022.6
21 13.01 штиль 0 50 км ясно -54.5 -56.9 75 -55 -55 опасность
обморожения
1035.4 1023.0
00 14.01 штиль 0 50 км ясно -54.4 -56.9 74 -54 -54 опасность
обморожения
1035.4 1023.0 -54.6 20
03 14.01 штиль 0 50 км ясно -54.1 -56.9 71 -54 -54 опасность
обморожения
1035.5 1023.1
06 14.01 штиль 0 50 км ясно -54.1 -56.9 71 -54 -54 опасность
обморожения
1035.5 1023.1
09 14.01 штиль 0 50 км ясно -54.1 -56.9 71 -54 -54 опасность
обморожения
1035.8 1023.4
12 14.01 штиль 0 50 км ясно -54.1 -56.9 71 -54 -54 опасность
обморожения
1035.9 1023.5 -54.0
15 14.01 штиль 0 50 км ясно -53.6 -56.9 67 -54 -54 опасность
обморожения
1035.6 1023.2
18 14.01 штиль 0 50 км ясно -53.6 -56.9 67 -54 -54 опасность
обморожения
1036.0 1023.6
21 14.01 З 1 50 км ясно -53.1 -56.9 63 -60 -60 опасность
обморожения
1036.2 1023.8
00 15.01 штиль 0 50 км ясно -53.1 -56.9 63 -53 -53 опасность
обморожения
1036.4 1024.0 -54.1 20
03 15.01 штиль 0 50 км ясно -52.7 -55.1 75 -53 -53 опасность
обморожения
1036.4 1024.0
06 15.01 З 1 50 км ясно -52.3 -55.1 71 -59 -59 опасность
обморожения
1035.6 1023.4
09 15.01 штиль 0 50 км ясно -52.5 -55.1 73 -53 -53 опасность
обморожения
1035.9 1023.5
12 15.01 штиль 0 50 км ясно -52.5 -55.1 73 -53 -53 опасность
обморожения
1035.9 1023.5
15 15.01 штиль 0 50 км ясно -53.1 -56.9 63 -53 -53 опасность
обморожения
1035.2 1022.8 -52.3
18 15.01 штиль 0 50 км ясно -53.1 -56.9 63 -53 -53 опасность
обморожения
1033.9 1021.5
21 15.01 штиль 0 50 км ясно -52.9 -55.1 77 -53 -53 опасность
обморожения
1039.5 1017.2
00 16.01 штиль 0 50 км ясно -52.2 -55.1 71 -52 -52 опасность
обморожения
1026.7 1014.7 -53.1 20
03 16.01 штиль 0 50 км 3/0
[Cs]
-51.7 -55.1 67 -52 -52 опасность
обморожения
1022.7 1010.7

 

Местоположение метеостанции Сухана (Якутия, Россия): широта 68.62 долгота 118.30 высота над уровнем моря 77 м.

В архиве по умолчанию представлена погода в Сухане за последнюю неделю. Архивные данные за месяц целиком и за предыдущие месяцы, начиная с января 2011 года, Вы можете получить, выбрав интересующий диапазон дат из раскрывающегося списка и нажав кнопку "Ввод!".


*Определитесь, кто Вы:
робот инопланетянин человек

Внимание! Время в таблицах - всемирное. Для получения местного времени необходимо прибавить поправку, которая равна 9 ч.

Смотрите также архив погоды в соседних городах и на ближайших метеорологических станциях:

Погода в Джарджане (Якутия, Россия) (231 км)
Погода в Оленеке (Якутия, Россия) (240 км)
Погода в Джалинде (Якутия, Россия) (241 км)
Погода в Эйке (Якутия, Россия) (291 км)
Погода в Жиганске (Якутия, Россия) (294 км)
Погода в Шелагонцах (Якутия, Россия) (316 км)
Погода в Полярном (Якутия, Россия) (326 км)
Погода в Саскылахе (Якутия, Россия) (406 км)
Погода в Тюмяти (Якутия, Россия) (415 км)
Погода в Айхале (Якутия, Россия) (419 км)

Пояснения к столбцам:

Ветер - указаны скорость ветра в м/с - средняя за 10 мин, порывы в срок и между сроками (в фигурных скобках) и направление, откуда дует ветер: С - северный, СВ - северо-восточный, В - восточный, ЮВ - юго-восточный, Ю - южный, ЮЗ - юго-западный, З - западный, СЗ - северо-западный.
Видимость - горизонтальная дальность видимости в метрах или километрах. При видимости от 1 до 10 км при отсутствии осадков обычно наблюдается дымка, при ухудшении видимости до 1 км и менее - туман. В сухую погоду видимость может ухудшаться дымом, пылью или мглою.
Явления - указаны атмосферные явления, наблюдавшиеся в срок или в последний час перед сроком; фигурными скобками обозначены явления, наблюдавшиеся между сроками (за 1-3 часа до срока); квадратными скобками обозначены град или гололедные отложения с указанием их диаметра в мм.
Облачность - указаны через наклонную черту общая и нижняя облачность в баллах и высота нижней границы облаков в метрах; квадратными скобками обозначены формы облаков: Ci - перистые, Cs - перисто-слоистые, Cc - перисто-кучевые, Ac - высококучевые, As - высокослоистые, Sc - слоисто-кучевые, Ns - слоисто-дождевые, Cu - кучевые, Cb - кучево-дождевые. Подробнее классификацию облаков см. в Атласе облаков (PDF).
T - Температура воздуха - температура, измеренная на высоте 2 м над землей.
Td - Температура точки росы - температура, при понижении до которой содержащийся в воздухе водяной пар достигнет насыщения.
f - Относительная влажность воздуха - влажноcть воздуха, измеренная на высоте 2 м над землей.
Te - Эффективная температура - температура, которую ощущает одетый по сезону человек в тени. Характеристика душности погоды. При расчете учитывается влияние влажности воздуха и скорости ветра на теплоощущения человека.
Tes - Эффективная температура на солнце - температура, которую ощущает человек, с поправкой на солнечный нагрев. Характеристика знойности погоды. Зависит от высоты солнца над горизонтом, облачности и скорости ветра. Ночью, в пасмурную погоду, а также при ветре 12 м/с и более поправка равна нулю.
P - Атмосферное давление - приведенное к уровню моря атмосферное давление.
Po - Атмосферное давление - измеренное на уровне метеостанции атмосферное давление.
Tmin - Минимальная температура - минимум температуры воздуха на высоте 2 м над землей.
Tmax - Максимальная температура - максимум температуры воздуха на высоте 2 м над землей.
R - Количество осадков - Количество выпавших осадков за период времени, мм. При наведении курсора мыши на число - период времени, за который выпало указанное количество осадков.
R24 - Количество осадков - Количество выпавших осадков за 24 часа, мм.
S - Снежный покров - Высота снежного покрова, см. При наведении курсора мыши на число - состояние снежного покрова и степень покрытия местности в баллах.